"Pseudo-MPEC" for P11XHFI

Created 2024 Sep 11 1:22:08 UT using Find_Orb

Click here for an explanation of pseudo-MPECs

 
 Astrometry: 
     P11XHFI  C2024 09 01.32683722 56 51.066+08 55 48.23   ~91Bb 22.47GVNEOCPF51
     P11XHFI  C2024 09 01.33888622 56 49.998+08 55 49.90   ~91Bb 22.29GVNEOCPF51
     P11XHFI  C2024 09 01.35096122 56 48.871+08 55 51.97   ~91Bb 22.20GVNEOCPF51
     P11XHFI  C2024 09 01.36302722 56 47.780+08 55 53.58   ~91Bb 22.10GVNEOCPF51
     P11XHFI  C2024 09 01.45228322 56 39.576+08 56 06.65   ~91D7 22.04GVNEOCPF52
     P11XHFI  C2024 09 01.45311222 56 39.493+08 56 06.75   ~91D7 22.22GVNEOCPF52
     P11XHFI  C2024 09 05.47734922 50 41.006+09 03 29.05   ~95Ib 21.80GVNEOCPF51
     P11XHFI  C2024 09 05.47799522 50 40.947+09 03 29.23   ~95Ib 22.29GVNEOCPF51

Station data:
(F51) Pan-STARRS 1, Haleakala  (N20.707234 W156.255910)  US/Hawaii.
   Observers J. Bulger, T. Lowe, A. Schultz, M. Willman. Measurers K.
   Chambers, S. Chastel, T. de Boer, L. Denneau, J. Fairlamb, H. Flewelling,
   M. Huber, C.-C. Lin, E. Magnier, Y. Ramanjooloo, R. Wainscoat, R. Weryk.
   1.8-m Ritchey-Chrétien + CCD.
(F52) Pan-STARRS 2, Haleakala  (N20.707382 W156.255910)  US/Hawaii.
   Observers J. Bulger, T. Dukes, T. Lowe, A. Schultz, M. Willman. Measurers
   K. Chambers, S. Chastel, T. de Boer, L. Denneau, J. Fairlamb, H.
   Flewelling, M. Huber, C.-C. Lin, E. Magnier, Y. Ramanjooloo, R. Wainscoat,
   R. Weryk. 1.8-m Ritchey-Chrétien + CCD.

Orbital elements:  P11XHFI
   Perihelion 2025 Nov 1.58199 +/- 119 TT = 13:58:04 (JD 2460981.08199)
Epoch 2024 Sep  5.0 TT = JDT 2460558.5   Earth MOID: 0.6653   Ma: 0.0180
M 187.44334322 +/- 42               (J2000 ecliptic)             AutoNEOCP
n   0.40833888 +/- 0.0147           Peri.  204.03104 +/- 33
a   1.79937725 +/- 0.0432           Node   315.56043 +/- 2.7
e   0.0846662 +/- 0.011             Incl.   14.70409 +/- 1.6
P   2.414/881.604d         H 20.49  G  0.15   U 10.0
q 1.64703071 +/- 0.0289    Q 1.95172379 +/- 0.0626
From 8 observations 2024 Sept. 1-5; mean residual 0".10
Residuals in arcseconds: 
240901 F51  .19-  .03+    240901 F51  .08+  .05-    240905 F51  .01-  .07-    
240901 F51  .25+  .12-    240901 F52  .04+  .00     240905 F51  .01+  .07+    
240901 F51  .11-  .14+    240901 F52  .06-  .01-    

Ephemerides (geocentric):
Date (UTC) HH   RA             Dec           delta  r     elong  mag " sig PA
---- --------  ------------   ------------  ------ ------ -----  --- --------
2024 09 11 01  22 42 28.439   +09 06 44.38  .96279 1.9498 163.8 22.4 42.6  62
2024 09 11 02  22 42 24.810   +09 06 44.12  .96283 1.9498 163.8 22.4 43.1  62
2024 09 11 03  22 42 21.182   +09 06 43.85  .96287 1.9498 163.7 22.4 43.5  62
2024 09 11 04  22 42 17.556   +09 06 43.55  .96291 1.9498 163.7 22.4 44.0  62
2024 09 11 05  22 42 13.930   +09 06 43.22  .96295 1.9498 163.7 22.4 44.5  62
2024 09 11 06  22 42 10.307   +09 06 42.88  .96300 1.9498 163.7 22.4 45.0  62
2024 09 11 07  22 42 06.684   +09 06 42.50  .96304 1.9498 163.7 22.4 45.4  62
2024 09 11 08  22 42 03.063   +09 06 42.11  .96308 1.9497 163.7 22.4 45.9  62
2024 09 11 09  22 41 59.443   +09 06 41.69  .96313 1.9497 163.6 22.4 46.4  62
2024 09 11 10  22 41 55.825   +09 06 41.25  .96317 1.9497 163.6 22.4 46.9  62
2024 09 11 11  22 41 52.208   +09 06 40.78  .96322 1.9497 163.6 22.4 47.4  62
2024 09 11 12  22 41 48.592   +09 06 40.29  .96326 1.9497 163.6 22.4 47.9  62
2024 09 11 13  22 41 44.978   +09 06 39.78  .96331 1.9497 163.6 22.4 48.3  62
2024 09 11 14  22 41 41.365   +09 06 39.24  .96335 1.9497 163.6 22.4 48.8  62
2024 09 11 15  22 41 37.754   +09 06 38.68  .96340 1.9497 163.5 22.4 49.3  62
2024 09 11 16  22 41 34.144   +09 06 38.10  .96345 1.9497 163.5 22.4 49.8  62
2024 09 11 17  22 41 30.536   +09 06 37.49  .96349 1.9497 163.5 22.4 50.3  62
2024 09 11 18  22 41 26.929   +09 06 36.86  .96354 1.9497 163.5 22.4 50.8  62
2024 09 11 19  22 41 23.323   +09 06 36.20  .96359 1.9497 163.5 22.4 51.3  62
2024 09 11 20  22 41 19.719   +09 06 35.53  .96364 1.9497 163.5 22.4 51.8  62
2024 09 11 21  22 41 16.116   +09 06 34.83  .96369 1.9497 163.4 22.4 52.3  62
2024 09 11 22  22 41 12.515   +09 06 34.10  .96373 1.9496 163.4 22.4 52.8  62
2024 09 11 23  22 41 08.915   +09 06 33.36  .96378 1.9496 163.4 22.4 53.3  62
2024 09 12 00  22 41 05.317   +09 06 32.59  .96383 1.9496 163.4 22.4 53.9  61
2024 09 12 01  22 41 01.721   +09 06 31.79  .96389 1.9496 163.4 22.4 54.4  61
2024 09 12 02  22 40 58.125   +09 06 30.98  .96394 1.9496 163.3 22.4 54.9  61
2024 09 12 03  22 40 54.532   +09 06 30.14  .96399 1.9496 163.3 22.4 55.4  61
2024 09 12 04  22 40 50.940   +09 06 29.27  .96404 1.9496 163.3 22.4 55.9  61
2024 09 12 05  22 40 47.349   +09 06 28.39  .96409 1.9496 163.3 22.4 56.4  61
2024 09 12 06  22 40 43.760   +09 06 27.48  .96414 1.9496 163.3 22.4 56.9  61
2024 09 12 07  22 40 40.173   +09 06 26.55  .96420 1.9496 163.3 22.4 57.5  61
2024 09 12 08  22 40 36.587   +09 06 25.59  .96425 1.9496 163.2 22.4 58.0  61
2024 09 12 09  22 40 33.002   +09 06 24.62  .96430 1.9496 163.2 22.5 58.5  61
2024 09 12 10  22 40 29.420   +09 06 23.62  .96436 1.9496 163.2 22.5 59.0  61
2024 09 12 11  22 40 25.838   +09 06 22.59  .96441 1.9496 163.2 22.5 59.6  61
2024 09 12 12  22 40 22.259   +09 06 21.55  .96447 1.9496 163.2 22.5 60.1  61
2024 09 12 13  22 40 18.681   +09 06 20.48  .96452 1.9495 163.1 22.5 60.6  61
2024 09 12 14  22 40 15.105   +09 06 19.39  .96458 1.9495 163.1 22.5 61.2  61
2024 09 12 15  22 40 11.530   +09 06 18.28  .96464 1.9495 163.1 22.5 61.7  61
2024 09 12 16  22 40 07.957   +09 06 17.14  .96469 1.9495 163.1 22.5 62.2  61
2024 09 12 17  22 40 04.385   +09 06 15.98  .96475 1.9495 163.1 22.5 62.8  61
2024 09 12 18  22 40 00.816   +09 06 14.80  .96481 1.9495 163.0 22.5 63.3  61
2024 09 12 19  22 39 57.248   +09 06 13.59  .96487 1.9495 163.0 22.5 63.8  61
2024 09 12 20  22 39 53.681   +09 06 12.37  .96492 1.9495 163.0 22.5 64.4  61
2024 09 12 21  22 39 50.116   +09 06 11.12  .96498 1.9495 163.0 22.5 64.9  61
2024 09 12 22  22 39 46.553   +09 06 09.85  .96504 1.9495 162.9 22.5 65.5  61
2024 09 12 23  22 39 42.992   +09 06 08.56  .96510 1.9495 162.9 22.5 66.0  61
2024 09 13 00  22 39 39.432   +09 06 07.24  .96516 1.9495 162.9 22.5 66.6  61